FW0807 Weather Reports


Display with metric or nautical units.
time (UTC)temp
F
wind
direction
speed
MPH
gust
MPH
rain 1hr
in
rain 24hr
in
rain mn
in
humidity
%
barometer
mb
20260507093004 44 5 2.0 4.0 0.00 0.00 0.00 92 1017.8
20260507091503 44 15 0.0 0.0 0.00 0.00 0.00 93 1017.9
20260507090105 44 9 0.0 0.0 0.00 0.00 0.00 93 1017.9
20260507084601 44 355 0.0 2.0 0.00 0.00 0.00 93 1017.7
20260507083059 45 26 0.0 2.0 0.00 0.00 0.00 94 1017.8
20260507081557 45 16 0.0 3.0 0.00 0.00 0.00 95 1017.8
20260507080059 45 22 0.0 3.0 0.00 0.00 0.00 96 1017.6
20260507074554 45 5 0.0 3.0 0.00 0.00 0.00 96 1017.6
20260507073103 45 317 0.0 3.0 0.00 0.00 0.00 96 1017.5
20260507071554 45 22 0.0 0.0 0.00 0.00 0.00 96 1017.5
20260507070101 45 31 0.0 0.0 0.00 0.00 0.00 96 1017.5
20260507064555 44 29 0.0 0.0 0.00 0.00 0.00 95 1017.6
20260507063049 44 29 0.0 0.0 0.00 0.00 0.00 95 1017.5
20260507061547 45 29 0.0 0.0 0.00 0.00 0.00 95 1017.4
20260507060054 45 29 0.0 0.0 0.00 0.00 0.00 95 1017.5
20260507054544 46 29 0.0 0.0 0.00 0.00 0.00 95 1017.4
20260507053043 46 29 0.0 0.0 0.00 0.00 0.00 95 1017.4
20260507051540 47 29 0.0 0.0 0.00 0.00 0.00 94 1017.5
20260507050038 47 29 0.0 0.0 0.00 0.00 0.00 94 1017.4
20260507044549 48 29 0.0 0.0 0.00 0.00 0.00 94 1017.2
20260507043042 49 29 0.0 0.0 0.00 0.00 0.00 93 1017.2
20260507041539 50 29 0.0 0.0 0.00 0.00 0.00 93 1017.1
20260507040042 50 29 0.0 0.0 0.00 0.00 0.00 93 1017.0
20260507034541 51 29 0.0 0.0 0.00 0.00 0.00 92 1016.9
20260507033045 51 29 0.0 0.0 0.00 0.00 0.00 91 1017.0
20260507031551 51 29 0.0 0.0 0.00 0.00 0.00 90 1016.9
20260507030038 52 29 0.0 0.0 0.00 0.00 0.00 88 1016.7
20260507024539 54 29 0.0 0.0 0.00 0.16 0.00 87 1016.7
20260507023032 54 29 0.0 0.0 0.00 0.16 0.00 85 1016.8
20260507021536 55 29 0.0 1.0 0.00 0.16 0.00 83 1016.4
20260507020031 55 36 0.0 1.0 0.00 0.16 0.00 83 1016.1
20260507014540 55 49 1.0 4.0 0.00 0.16 0.00 81 1016.1
20260507013036 55 5 1.0 3.0 0.00 0.16 0.00 81 1016.5
20260507011535 55 22 0.0 0.0 0.00 0.16 0.00 82 1016.1
20260507010038 56 5 1.0 2.0 0.00 0.16 0.00 82 1016.1
20260507004528 56 338 1.0 2.0 0.00 0.17 0.00 83 1016.2
20260507003027 56 27 0.0 0.0 0.00 0.17 0.00 78 1015.9
20260507001533 57 27 0.0 1.0 0.00 0.17 0.00 77 1015.9
20260507000027 58 355 1.0 2.0 0.00 0.17 0.00 74 1016.2
20260506234526 58 55 0.0 0.0 0.00 0.17 0.00 75 1015.6
20260506233026 59 55 0.0 2.0 0.00 0.17 0.00 72 1015.8
20260506231526 59 360 1.0 6.0 0.00 0.17 0.00 67 1015.8
20260506230024 60 360 4.0 8.0 0.00 0.17 0.00 64 1015.6
20260506224526 60 355 4.0 10.0 0.00 0.17 0.00 66 1014.9
20260506223023 60 59 6.0 12.0 0.00 0.17 0.00 66 1014.5
20260506221522 60 44 7.0 12.0 0.00 0.17 0.00 66 1014.4
20260506220021 60 9 6.0 11.0 0.00 0.17 0.00 68 1014.1
20260506214518 59 15 3.0 10.0 0.00 0.17 0.00 69 1014.5
20260506213018 60 5 6.0 11.0 0.00 0.17 0.00 67 1014.5
20260506211520 59 40 3.0 6.0 0.00 0.17 0.00 70 1014.9
20260506210017 58 52 1.0 5.0 0.00 0.17 0.00 70 1015.3
20260506204513 58 23 3.0 9.0 0.00 0.17 0.00 67 1015.6
20260506203011 58 17 4.0 10.0 0.00 0.17 0.00 68 1015.9
20260506201512 58 27 2.0 8.0 0.00 0.17 0.00 70 1016.4
20260506200010 58 35 5.0 10.0 0.00 0.17 0.00 68 1016.7
20260506194509 57 74 3.0 8.0 0.00 0.17 0.00 70 1016.8
20260506193009 57 42 2.0 5.0 0.00 0.17 0.00 68 1017.0
20260506191508 58 350 3.0 9.0 0.00 0.17 0.00 69 1016.8
20260506190007 57 355 6.0 10.0 0.00 0.17 0.00 69 1016.7
20260506184507 58 27 5.0 10.0 0.00 0.17 0.00 68 1016.4
20260506183006 57 15 4.0 11.0 0.00 0.17 0.00 69 1016.3
20260506181505 57 18 6.0 9.0 0.00 0.17 0.00 70 1016.6
20260506180007 57 11 5.0 9.0 0.00 0.17 0.00 69 1017.2
20260506174503 57 49 5.0 12.0 0.00 0.17 0.00 70 1016.8
20260506173003 58 92 3.0 10.0 0.00 0.17 0.00 71 1016.3
20260506171501 59 347 7.0 13.0 0.00 0.17 0.00 69 1016.4
20260506170057 57 12 9.0 16.0 0.00 0.17 0.00 70 1016.8
20260506164606 58 57 5.0 12.0 0.00 0.17 0.00 71 1017.0
20260506163104 56 42 5.0 12.0 0.00 0.17 0.00 72 1017.1
20260506161614 55 33 4.0 10.0 0.00 0.17 0.00 75 1016.8
20260506160050 55 24 6.0 11.0 0.00 0.17 0.00 74 1017.1
20260506154550 54 39 3.0 11.0 0.00 0.17 0.00 78 1016.9
20260506153047 53 49 4.0 11.0 0.00 0.17 0.00 80 1016.6
20260506151542 52 20 4.0 10.0 0.00 0.17 0.00 83 1016.9
20260506150041 51 317 2.0 10.0 0.00 0.17 0.00 84 1016.8
20260506144539 51 346 5.0 12.0 0.00 0.17 0.00 85 1016.8
20260506143036 50 29 3.0 11.0 0.00 0.17 0.00 86 1016.9
20260506141531 50 15 7.0 11.0 0.00 0.17 0.00 88 1016.6
20260506140026 49 355 4.0 9.0 0.00 0.17 0.00 89 1017.0
20260506134522 49 33 3.0 8.0 0.00 0.17 0.00 90 1016.8
20260506133018 48 26 2.0 5.0 0.00 0.17 0.00 91 1016.6
20260506131518 48 340 3.0 5.0 0.00 0.17 0.00 92 1016.3
20260506130013 47 40 2.0 6.0 0.00 0.17 0.00 93 1016.1
20260506124508 47 22 3.0 7.0 0.00 0.18 0.00 93 1015.7
20260506123004 47 17 4.0 8.0 0.00 0.18 0.00 94 1015.2
20260506121503 47 5 3.0 6.0 0.00 0.18 0.00 94 1014.8
20260506120108 47 30 3.0 6.0 0.00 0.18 0.00 93 1014.6
20260506114557 46 332 1.0 4.0 0.00 0.33 0.00 93 1014.8
20260506113057 46 36 2.0 4.0 0.00 0.33 0.00 93 1014.1
20260506111553 46 5 2.0 4.0 0.00 0.33 0.00 93 1013.8
20260506110057 46 336 3.0 5.0 0.00 0.33 0.00 93 1014.0
20260506104553 46 5 3.0 10.0 0.00 0.50 0.00 93 1013.6
20260506103055 46 350 2.0 8.0 0.00 0.50 0.00 93 1013.3
20260506101556 46 46 4.0 9.0 0.00 0.50 0.00 94 1012.7
20260506094543 46 26 3.0 10.0 0.00 0.50 0.00 94 1012.2